DW4338 Weather Reports


time (UTC)temp
F
wind
direction
speed
knots
gust
knots
rain 1hr
in
rain 24hr
in
rain mn
in
humidity
%
barometer
mb
20260503071607 43 344 5.2 0.0 0.00 0.00 0.00 66 1010.4
20260503054545 41 338 4.3 0.0 0.00 0.00 0.00 69 1010.3
20260503053045 40 333 4.3 0.0 0.00 0.00 0.00 74 1010.3
20260503051541 40 346 5.2 0.0 0.00 0.00 0.00 75 1010.3
20260503050040 40 338 4.3 0.0 0.00 0.00 0.00 76 1010.3
20260503044538 39 331 3.5 0.0 0.00 0.00 0.00 77 1010.3
20260503043039 39 304 4.3 0.0 0.00 0.00 0.00 78 1010.3
20260503041537 39 338 3.5 0.0 0.00 0.00 0.00 79 1010.3
20260503040036 39 331 3.5 0.0 0.00 0.00 0.00 79 1010.2
20260503034535 39 355 3.5 0.0 0.00 0.00 0.00 80 1010.2
20260503033042 39 327 4.3 0.0 0.00 0.00 0.00 79 1010.1
20260503031531 39 327 3.5 0.0 0.00 0.00 0.00 79 1010.2
20260503030029 39 325 3.5 0.0 0.00 0.00 0.00 79 1010.2
20260503024529 39 320 3.5 0.0 0.00 0.00 0.00 79 1010.3
20260503023028 39 293 3.5 0.0 0.00 0.00 0.00 78 1010.3
20260503021528 39 321 3.5 0.0 0.00 0.00 0.00 78 1010.3
20260503020025 39 360 3.5 0.0 0.00 0.00 0.00 78 1010.3
20260503014538 39 315 3.5 0.0 0.00 0.00 0.00 77 1010.2
20260503013023 39 321 4.3 0.0 0.00 0.00 0.00 77 1010.4
20260503011522 39 301 4.3 0.0 0.00 0.00 0.00 77 1010.3
20260503010021 39 343 4.3 0.0 0.00 0.00 0.00 78 1010.3
20260503004526 39 317 3.5 0.0 0.00 0.00 0.00 79 1010.5
20260503003018 40 320 3.5 0.0 0.00 0.00 0.00 79 1010.6
20260503001518 40 337 4.3 0.0 0.00 0.00 0.00 78 1010.6
20260503000016 40 323 4.3 0.0 0.00 0.00 0.00 78 1010.7
20260502234515 40 336 4.3 0.0 0.00 0.00 0.00 78 1010.7
20260502233014 40 337 4.3 0.0 0.00 0.00 0.00 78 1010.8
20260502231516 40 348 4.3 0.0 0.00 0.00 0.00 78 1010.9
20260502230015 40 331 4.3 0.0 0.00 0.00 0.00 78 1011.0
20260502224510 40 343 4.3 0.0 0.00 0.00 0.00 78 1010.9
20260502223009 40 332 5.2 0.0 0.00 0.00 0.00 78 1010.8
20260502221506 40 335 5.2 0.0 0.00 0.00 0.00 78 1010.9
20260502220004 40 346 4.3 0.0 0.00 0.00 0.22 78 1011.0
20260502214506 40 331 5.2 0.0 0.00 0.00 0.22 78 1011.2
20260502213003 40 279 4.3 0.0 0.00 0.00 0.22 77 1011.0
20260502211637 40 331 5.2 0.0 0.00 0.00 0.22 77 1011.2
20260502210001 40 346 4.3 0.0 0.00 0.00 0.22 77 1011.1
20260502204600 40 342 5.2 0.0 0.00 0.00 0.22 77 1011.0
20260502203104 40 336 4.3 0.0 0.00 0.00 0.22 77 1010.9
20260502201606 41 333 5.2 0.0 0.00 0.00 0.22 76 1010.8
20260502200057 41 331 6.1 0.0 0.00 0.00 0.22 77 1010.8
20260502194606 41 302 5.2 0.0 0.00 0.00 0.22 77 1010.8
20260502193053 42 343 5.2 0.0 0.00 0.00 0.22 75 1010.8
20260502191551 42 12 6.1 0.0 0.00 0.00 0.22 75 1010.7
20260502190048 42 319 6.1 0.0 0.00 0.00 0.22 74 1010.6
20260502184555 43 22 5.2 0.0 0.00 0.00 0.22 74 1010.7
20260502183057 43 346 7.0 0.0 0.00 0.00 0.22 73 1010.6
20260502181547 44 12 6.1 0.0 0.00 0.00 0.22 73 1010.6
20260502163041 43 5 3.5 0.0 0.00 0.00 0.22 91 1010.8
20260502161534 43 327 2.6 0.0 0.00 0.00 0.21 91 1010.8
20260502151526 44 323 2.6 0.0 0.00 0.00 0.21 90 1011.2
20260502123019 47 143 1.7 0.0 0.00 0.00 0.20 89 1011.2
20260502121517 47 143 1.7 0.0 0.00 0.00 0.20 89 1011.2
20260502114515 47 196 1.7 0.0 0.00 0.00 0.20 89 1011.3
20260502113014 47 196 1.7 0.0 0.00 0.00 0.20 89 1011.4
20260502111514 47 196 3.5 0.0 0.00 0.00 0.20 89 1011.6
20260502110013 47 202 2.6 0.0 0.00 0.00 0.20 89 1011.4
20260502104520 47 194 3.5 0.0 0.00 0.00 0.20 89 1011.5
20260502103014 46 216 3.5 0.0 0.00 0.00 0.20 89 1011.7
20260502101530 46 230 3.5 0.0 0.00 0.00 0.20 89 1011.5
20260502091511 46 189 5.2 0.0 0.00 0.00 0.20 88 1011.3